This demonstration page uses our WeatherBlox Daily Observations layout. Learn more.

Hourly Observations for September 20, 2019

Temp ( °F °C ) Dew Point ( °F °C ) Humidity (%) Winds ( mph kmh ) Pressure ( in mb ) Visibility ( mi km ) Precip ( " mm )
12:15 am 00:15 Clear 63 17 63 17 100 100 Calm 30.09 1019 10 16.09344 N/A
12:36 am 00:36 Clear 63 17 63 17 100 100 Calm 30.09 1019 10 16.09344 N/A
12:55 am 00:55 Clear 63 17 63 17 100 100 Calm 30.09 1019 10 16.09344 N/A
1:16 am 01:16 Clear 63 17 63 17 100 100 SE 3 6 30.09 1019 10 16.09344 N/A
1:35 am 01:35 Clear 61 16 61 16 100 100 Calm 30.09 1019 10 16.09344 N/A
1:56 am 01:56 Clear 61 16 61 16 100 100 Calm 30.09 1019 10 16.09344 N/A
2:15 am 02:15 Clear 59 15 59 15 100 100 Calm 30.12 1020 10 16.09344 N/A
2:35 am 02:35 Clear 61 16 61 16 100 100 Calm 30.12 1020 10 16.09344 N/A
2:55 am 02:55 Clear 61 16 61 16 100 100 Calm 30.12 1020 10 16.09344 N/A
3:16 am 03:16 Clear 61 16 61 16 100 100 SSE 3 6 30.12 1020 10 16.09344 N/A
3:36 am 03:36 Clear 61 16 61 16 100 100 S 5 7 30.12 1020 10 16.09344 N/A
3:56 am 03:56 Clear 64 18 64 18 100 100 S 3 6 30.12 1020 10 16.09344 N/A
4:16 am 04:16 Clear 64 18 64 18 100 100 Calm 30.12 1020 10 16.09344 N/A
4:36 am 04:36 Clear 61 16 61 16 100 100 Calm 30.12 1020 7 11.265408 N/A
4:55 am 04:55 Clear 61 16 61 16 100 100 Calm 30.12 1020 7 11.265408 N/A
5:15 am 05:15 Partly Cloudy 61 16 61 16 100 100 SE 3 6 30.12 1020 7 11.265408 N/A
5:36 am 05:36 Clear 61 16 61 16 100 100 E 3 6 30.12 1020 7 11.265408 N/A
5:55 am 05:55 Clear 61 16 61 16 100 100 Calm 30.12 1020 7 11.265408 N/A
6:15 am 06:15 Clear 61 16 61 16 100 100 Calm 30.12 1020 7 11.265408 N/A
6:36 am 06:36 Clear 61 16 61 16 100 100 Calm 30.12 1020 7 11.265408 N/A
6:55 am 06:55 Partly Cloudy 61 16 61 16 100 100 Calm 30.15 1021 5 8.04672 N/A
7:15 am 07:15 Partly Cloudy 61 16 61 16 100 100 SSE 5 7 30.15 1021 7 11.265408 N/A
7:36 am 07:36 Sunny 64 18 64 18 100 100 SSE 5 7 30.15 1021 7 11.265408 N/A
7:55 am 07:55 Sunny 64 18 64 18 100 100 SSE 5 7 30.15 1021 7 11.265408 N/A
8:16 am 08:16 Sunny 64 18 64 18 100 100 SSE 3 6 30.15 1021 5 8.04672 N/A
8:35 am 08:35 Sunny 64 18 64 18 100 100 Calm 30.15 1021 7 11.265408 N/A
8:56 am 08:56 Sunny 68 20 68 20 100 100 S 3 6 30.15 1021 7 11.265408 N/A
9:16 am 09:16 Sunny 70 21 70 21 100 100 Calm 30.18 1022 10 16.09344 N/A
9:35 am 09:35 Sunny 72 22 70 21 94 94 S 5 7 30.18 1022 10 16.09344 N/A
9:56 am 09:56 Sunny 72 22 70 21 94 94 SSW 5 7 30.18 1022 10 16.09344 N/A
10:15 am 10:15 Sunny 73 23 70 21 89 89 S 5 7 30.15 1021 10 16.09344 N/A
10:35 am 10:35 Sunny 75 24 72 22 89 89 Calm 30.15 1021 10 16.09344 N/A
10:56 am 10:56 Sunny 77 25 72 22 83 83 Calm 30.15 1021 10 16.09344 N/A
11:15 am 11:15 Sunny 77 25 72 22 83 83 Calm 30.15 1021 10 16.09344 N/A
11:35 am 11:35 Sunny 79 26 72 22 79 79 S 3 6 30.15 1021 10 16.09344 N/A
11:55 am 11:55 Sunny 81 27 72 22 74 74 S 3 6 30.15 1021 10 16.09344 N/A
12:15 pm 12:15 Sunny 82 28 72 22 70 70 Calm 30.15 1021 10 16.09344 N/A
12:36 pm 12:36 Sunny 82 28 72 22 70 70 Calm 30.15 1021 10 16.09344 N/A
12:55 pm 12:55 Sunny 84 29 72 22 66 66 Calm 30.15 1021 10 16.09344 N/A
1:15 pm 13:15 Sunny 84 29 72 22 66 66 SSW 3 6 30.15 1021 10 16.09344 N/A
1:35 pm 13:35 Partly Cloudy 82 28 70 21 66 66 SSE 3 6 30.12 1020 10 16.09344 N/A
1:55 pm 13:55 Partly Cloudy 84 29 68 20 58 58 Calm 30.12 1020 10 16.09344 N/A
2:15 pm 14:15 Sunny 86 30 70 21 59 59 S 3 6 30.12 1020 10 16.09344 N/A
2:36 pm 14:36 Sunny 84 29 68 20 58 58 Calm 30.12 1020 10 16.09344 N/A
2:55 pm 14:55 Sunny 86 30 70 21 59 59 Calm 30.12 1020 10 16.09344 N/A
3:15 pm 15:15 Sunny 86 30 70 21 59 59 SSE 3 6 30.12 1020 10 16.09344 N/A
3:36 pm 15:36 undefined 86 30 70 21 59 59 undefined N/A N/A N/A N/A
3:55 pm 15:55 undefined 86 30 70 21 59 59 undefined N/A N/A N/A N/A
4:15 pm 16:15 undefined N/A N/A N/A undefined N/A N/A N/A N/A
4:36 pm 16:36 undefined N/A N/A N/A undefined N/A N/A N/A N/A
4:55 pm 16:55 undefined N/A N/A N/A undefined N/A N/A N/A N/A
5:16 pm 17:16 undefined N/A N/A N/A undefined N/A N/A N/A N/A
5:36 pm 17:36 undefined N/A N/A N/A undefined N/A N/A N/A N/A
5:56 pm 17:56 undefined N/A N/A N/A undefined N/A N/A N/A N/A
6:16 pm 18:16 undefined N/A N/A N/A undefined N/A N/A N/A N/A
6:35 pm 18:35 undefined N/A N/A N/A undefined N/A N/A N/A N/A
6:55 pm 18:55 undefined N/A N/A N/A undefined N/A N/A N/A N/A
7:16 pm 19:16 undefined N/A N/A N/A undefined N/A N/A N/A N/A
7:35 pm 19:35 undefined N/A N/A N/A undefined N/A N/A N/A N/A
7:56 pm 19:56 undefined N/A N/A N/A undefined N/A N/A N/A N/A
8:16 pm 20:16 undefined N/A N/A N/A undefined N/A N/A N/A N/A
8:36 pm 20:36 undefined N/A N/A N/A undefined N/A N/A N/A N/A
8:56 pm 20:56 undefined N/A N/A N/A undefined N/A N/A N/A N/A
9:16 pm 21:16 undefined N/A N/A N/A undefined N/A N/A N/A N/A
9:36 pm 21:36 undefined N/A N/A N/A undefined N/A N/A N/A N/A
9:55 pm 21:55 undefined N/A N/A N/A undefined N/A N/A N/A N/A
10:16 pm 22:16 undefined N/A N/A N/A undefined N/A N/A N/A N/A
10:36 pm 22:36 undefined N/A N/A N/A undefined N/A N/A N/A N/A
10:55 pm 22:55 undefined N/A N/A N/A undefined N/A N/A N/A N/A
11:16 pm 23:16 undefined N/A N/A N/A undefined N/A N/A N/A N/A
11:36 pm 23:36 undefined N/A N/A N/A undefined N/A N/A N/A N/A
11:55 pm 23:55 undefined N/A N/A N/A undefined N/A N/A N/A N/A

Powered by AerisWeather